RADFXSAT (FOX-1B) (43017 NORAD) Tracking and Keplerian Element Data

This shows tracking and keplerian element data for the satellite.

Feedback or suggestion? Click here.




ElementValue
Catalog43017
NameRADFXSAT (FOX-1B)
Epoch Orbit7211
Epoch Day80.73798302
Epoch Year2019
RAAN5.5844
Inclination97.7222
Eccentricity0.0260117
Argument of Perigee88.0701
Mean Anonmoly275.0276
Mean Motion14.78422296
Decay Rate6.17E-06
L11 43017U 17073E 19080.73798302 .00000617 00000-0 52980-4 0 9992
L22 43017 97.7222 5.5844 0260117 88.0701 275.0276 14.78422296 72118

Live tracking and technical data element details for RADFXSAT (FOX-1B) (NORAD 43017). RADFXSAT (FOX-1B) can be tracked NOW for your location showing map with azimuth and elevation plus other details from your city location.

Track the satellite on the map from your city or location and see movement details for azimuth, elevation, latitude, longitude, range, height, and movement on the map or in text.







IsCatalogInMostPopularTable: catalog: 43017, numindb: 440
Update: records affected: 1



GetName: 43017 RADFXSAT (FOX-1B)

Hit Count: updated at: Sat, 23 Mar 2019 02:36:42 GMT